Wind_Speed
9 8 8 5 3 3 1 0 2 3 5 8 7 4 3 3 3 4 7 9 10 12 12 10 7 7 8 8 8 10 12 14 15 14 12 13 12 12 12 12 13 14 16 16 15 15 15 15 15 15 15 15 15 14 14 14 14 13 13 14 14 13 13 15 20 23 19 16 18 17 14 15 16 15 15 16 15 16 16 16 16 16 17 18 18
9 7 8 7 4 3 2 1 1 2 3 8 7 3 1 2 4 6 8 9 9 10 11 9 8 9 11 12 13 14 14 15 17 15 13 15 14 13 13 14 14 13 14 16 17 17 17 17 18 18 17 17 17 17 16 15 15 15 15 15 15 13 12 11 13 17 17 14 16 18 17 18 18 15 14 16 15 15 15 15 15 15 15 16 18
9 8 10 9 7 6 4 1 1 2 1 7 7 3 2 3 5 6 7 8 9 9 10 11 11 12 14 15 16 15 14 15 16 15 14 15 17 16 16 17 16 14 13 13 14 14 16 17 17 18 18 18 19 19 19 19 19 19 18 18 18 16 15 14 13 13 14 13 13 15 15 16 17 15 15 15 15 15 16 16 16 16 16 16 17
10 10 11 10 9 8 5 3 3 3 1 5 7 6 5 5 6 7 8 10 11 11 12 13 15 16 17 16 15 13 12 14 15 15 15 17 19 19 20 20 18 15 13 13 14 13 14 14 15 16 18 19 20 21 21 21 21 21 21 21 20 20 19 19 17 16 15 15 14 13 12 13 14 14 14 15 15 16 17 17 17 17 18 18 18
11 10 10 9 9 8 6 5 3 3 3 3 4 5 6 6 8 10 12 13 13 14 15 16 17 17 16 14 13 12 12 13 14 15 16 17 19 20 21 21 20 16 13 13 15 16 16 16 17 19 21 22 22 22 22 23 23 22 22 21 21 21 21 21 20 19 19 19 19 18 17 16 15 14 14 15 17 18 18 18 17 18 18 19 19
8 8 8 7 9 9 7 5 3 4 5 4 4 5 7 9 10 11 12 12 13 14 14 14 14 14 13 12 12 13 13 14 14 15 16 16 16 16 17 18 18 15 13 14 16 17 17 18 20 22 24 25 24 22 22 22 22 22 21 21 20 20 21 20 20 20 20 20 20 21 20 20 19 18 16 17 19 20 20 19 18 18 18 19 19
7 7 7 8 9 8 6 5 4 5 5 5 5 6 8 9 10 10 10 10 10 11 11 11 11 11 11 11 11 12 13 13 14 14 14 15 15 14 13 14 15 14 14 15 16 17 18 20 22 23 24 25 24 21 20 19 20 20 21 21 21 20 20 19 18 19 20 21 22 22 21 21 21 20 18 17 19 20 21 21 21 20 19 19 19
9 9 8 9 10 8 7 6 6 5 4 5 5 6 8 9 10 10 10 10 10 10 11 11 11 11 11 11 11 12 13 14 14 14 14 15 15 14 13 14 14 16 16 16 17 18 19 20 21 22 23 24 23 21 19 19 20 21 20 20 21 21 20 20 20 20 21 22 23 23 23 22 22 22 21 19 19 20 20 21 22 21 20 19 19
12 11 10 9 9 9 8 7 6 5 5 5 6 7 8 10 10 10 10 11 11 11 11 11 12 12 12 13 13 14 14 14 13 13 14 14 14 15 15 15 15 16 16 16 16 16 17 19 20 21 23 23 22 20 19 19 20 21 21 19 19 20 21 21 22 21 22 23 23 23 24 23 23 23 23 21 20 20 20 20 21 21 21 20 20
12 12 12 11 9 8 8 7 6 5 5 6 6 7 9 11 12 12 11 12 12 13 13 13 14 14 14 14 13 13 12 12 13 13 14 16 17 17 18 17 17 16 15 16 17 17 18 20 21 22 23 23 21 20 20 19 18 18 20 20 19 20 20 21 22 22 23 24 24 24 24 24 23 22 22 21 20 19 19 19 20 20 20 21 22
13 13 13 12 11 10 9 9 8 7 6 6 6 8 10 12 12 13 12 12 13 13 14 14 15 15 14 13 13 13 13 14 15 15 16 17 18 18 18 18 18 18 18 18 19 21 22 23 23 24 24 23 22 20 20 19 17 16 18 19 20 21 20 20 20 21 21 22 23 22 22 22 21 20 20 20 20 19 19 19 19 20 19 20 22
15 14 14 13 13 12 11 10 9 9 7 6 7 9 11 12 12 12 12 12 13 13 14 15 15 14 13 13 14 15 15 15 14 15 15 16 17 19 20 21 21 21 21 21 22 22 23 24 24 24 24 22 22 21 20 19 18 17 18 19 21 22 21 19 19 20 20 21 22 22 22 22 21 20 19 18 18 18 18 19 19 20 21 22 24
17 16 14 14 14 12 11 11 11 10 9 7 8 10 11 12 12 12 12 12 13 14 14 14 14 14 14 15 15 16 15 15 15 16 17 18 19 21 23 23 22 22 21 21 21 21 22 23 24 24 23 22 22 21 21 20 19 18 18 19 20 21 22 22 21 22 22 23 24 24 23 22 22 21 19 18 19 19 19 19 19 19 21 22 24
19 16 14 14 13 12 12 12 12 12 10 9 10 11 12 12 12 12 13 13 14 15 15 16 16 16 15 15 16 16 16 16 17 17 18 18 19 20 20 20 20 20 20 20 19 20 20 21 23 23 23 22 21 20 20 20 20 20 19 20 20 21 21 22 23 23 23 23 24 25 24 24 23 23 21 20 20 21 21 21 20 20 21 22 23
19 17 15 14 13 13 15 13 12 13 12 10 11 12 12 12 12 13 13 14 15 16 15 15 15 15 15 15 16 16 15 15 14 14 14 15 15 16 16 17 18 19 19 19 19 19 20 20 21 22 21 21 21 20 20 20 21 21 20 20 20 20 20 20 21 22 22 23 24 25 25 26 25 24 23 22 22 22 22 23 22 22 23 24 24
19 16 15 14 13 15 17 13 13 15 13 10 11 13 12 12 12 14 14 14 14 13 12 13 14 14 14 14 15 15 14 13 13 13 13 14 15 16 16 16 16 17 17 17 18 18 19 19 19 19 19 19 19 19 19 20 20 20 20 20 21 20 20 20 20 22 22 23 24 25 25 26 25 25 25 24 24 24 23 24 25 24 25 26 26
19 16 16 15 14 17 17 13 13 15 12 10 12 13 12 12 12 13 12 11 10 10 11 13 14 14 14 14 15 15 14 13 12 13 15 16 18 18 19 18 16 16 16 17 18 18 18 19 19 19 19 19 19 18 19 19 20 20 20 21 22 22 22 21 22 23 23 24 24 25 25 25 26 26 25 25 25 24 25 26 26 26 26 27 28
20 18 18 16 15 16 14 12 13 12 10 11 12 12 11 10 9 8 8 9 9 10 12 13 14 14 14 14 14 14 14 13 14 16 18 19 20 21 21 19 17 17 17 18 18 19 20 20 20 20 21 20 20 20 19 20 21 21 22 24 25 26 26 25 26 27 27 27 27 27 27 27 27 27 27 27 26 25 27 28 28 27 29 29 29
20 18 17 16 13 11 10 11 12 11 11 11 10 9 7 7 7 8 8 9 10 10 12 13 14 14 14 14 13 13 14 15 17 20 20 20 21 21 18 16 16 17 18 19 19 20 21 22 22 22 23 23 23 22 22 23 24 25 26 27 28 29 28 27 29 30 30 31 31 31 30 29 29 29 29 29 28 27 29 29 29 30 31 32 31
18 15 13 11 8 6 7 10 10 9 9 8 6 6 6 7 8 9 10 11 12 12 12 13 13 13 13 14 14 15 17 19 20 20 20 19 20 19 17 17 18 19 19 20 21 22 22 23 23 23 23 23 24 25 26 26 27 28 28 28 30 31 30 30 31 32 32 34 34 33 33 32 31 30 30 30 30 29 30 30 30 32 33 34 33
13 11 9 5 3 4 7 7 7 7 6 5 6 6 7 7 8 9 10 10 11 10 10 10 12 13 14 16 16 17 17 18 17 17 18 18 19 19 19 20 22 24 24 25 25 25 25 25 24 24 24 24 24 25 27 28 28 28 29 31 32 32 32 33 34 34 36 37 38 38 38 37 36 35 34 34 33 33 33 33 34 34 35 36 36
9 8 5 2 1 4 4 4 6 6 6 7 7 7 6 6 6 7 8 9 9 8 9 12 14 16 16 17 17 16 16 17 18 18 18 18 18 19 21 22 24 27 28 29 29 29 29 29 29 28 28 27 27 27 28 28 28 29 31 32 32 32 32 34 35 36 38 39 39 40 41 41 40 39 38 38 37 36 37 37 36 35 35 35 35
4 2 1 1 2 2 3 6 6 6 7 8 8 6 5 5 6 7 8 9 10 12 15 17 17 16 16 16 16 16 16 18 19 19 18 19 19 19 21 23 25 28 30 31 32 32 33 33 33 33 33 33 32 31 31 30 31 32 32 32 32 32 33 34 36 37 38 38 38 39 40 40 40 39 38 38 37 36 37 37 36 35 35 34 33
3 3 3 3 2 3 5 7 6 6 7 7 6 4 5 7 8 9 10 11 15 18 18 17 16 16 17 18 17 17 17 18 19 19 19 19 20 20 22 24 27 29 31 32 33 33 34 34 35 36 36 35 34 32 32 31 31 32 32 32 32 33 34 35 36 35 35 35 35 36 34 32 32 32 33 33 33 34 35 36 37 37 36 34 33
3 4 4 4 4 4 6 7 6 4 4 5 5 6 9 11 12 13 14 16 18 19 16 15 15 17 18 19 18 18 18 18 19 19 19 20 21 22 24 27 30 32 34 34 34 33 34 34 35 36 35 33 31 31 30 30 29 29 29 30 31 33 33 31 30 28 28 28 28 27 24 22 21 22 23 23 24 26 29 32 34 34 33 32 31
3 4 3 3 4 6 6 5 3 2 3 4 7 9 13 14 15 16 17 18 17 15 14 15 16 18 18 19 19 19 20 19 19 20 21 22 24 26 28 32 34 35 36 36 35 34 34 34 34 33 30 28 26 26 26 25 24 24 24 23 24 23 22 20 18 19 20 20 21 20 19 18 18 18 17 18 20 21 22 23 24 24 24 24 25
1 1 1 4 5 5 4 3 3 4 5 7 10 12 14 15 16 17 16 15 14 13 14 15 16 17 19 19 19 20 21 20 20 21 23 26 28 30 32 35 37 38 38 37 35 34 33 33 31 28 25 23 21 21 21 18 16 15 14 12 12 12 11 11 12 14 16 17 18 19 19 18 19 18 17 18 19 18 17 18 19 19 19 19 21
3 2 3 3 3 3 3 5 6 8 9 10 11 13 14 15 14 12 11 11 12 13 14 15 15 17 18 18 18 20 20 21 22 23 25 27 30 33 36 38 39 39 38 37 36 35 33 31 28 24 21 19 19 18 17 15 13 11 9 7 7 7 7 9 10 12 14 16 18 20 19 17 18 19 18 19 19 17 16 18 19 19 18 19 21
5 4 4 4 4 4 6 8 9 9 9 10 11 13 13 12 10 8 8 10 10 11 14 15 15 15 16 17 18 19 21 23 24 24 24 26 30 34 37 38 38 38 38 36 35 34 32 28 25 21 19 19 18 16 14 13 11 10 9 9 9 8 9 10 11 12 14 16 17 17 16 15 17 18 18 19 19 18 17 17 17 18 18 19 21
8 8 6 5 5 7 9 9 9 8 9 11 12 12 10 7 6 7 9 9 9 10 12 12 12 13 16 17 18 19 22 24 24 24 25 28 32 34 35 35 36 37 35 32 29 27 25 23 21 19 18 18 17 15 13 11 11 10 10 10 11 11 11 12 12 13 14 17 18 17 17 17 18 19 19 20 20 19 18 16 15 16 18 19 21
9 8 6 5 6 8 8 7 7 9 11 12 11 8 5 4 5 7 9 10 11 11 9 9 11 14 17 19 19 20 22 22 23 25 29 32 34 34 34 34 34 32 28 25 23 21 20 20 19 17 17 17 15 13 11 10 11 12 13 13 12 12 13 14 15 15 16 18 20 20 21 21 21 20 20 19 18 18 19 17 16 16 18 19 21
3 2 1 3 6 8 9 9 11 12 10 8 6 6 7 7 7 7 8 11 11 10 9 11 14 16 17 18 19 20 21 22 25 29 32 34 34 33 33 33 31 26 23 22 22 21 20 19 19 17 17 16 14 12 10 9 11 14 15 15 14 13 14 16 17 18 19 20 21 22 22 22 21 20 19 19 18 18 18 18 17 18 18 20 22
4 2 1 3 6 8 11 12 12 8 5 5 6 8 10 11 11 11 11 12 10 9 11 14 15 17 18 18 17 19 21 24 28 32 33 33 32 32 32 31 28 25 24 24 23 22 20 19 17 16 16 15 14 12 11 11 12 14 15 16 15 15 16 17 18 19 20 20 21 22 22 22 21 20 20 20 20 20 19 19 19 19 20 21 22
3 2 3 3 6 10 12 11 7 5 5 6 7 9 10 11 11 12 13 13 13 13 15 16 17 18 20 19 17 19 22 27 31 32 32 31 31 31 32 31 28 26 25 25 24 21 19 17 15 14 14 13 12 12 12 11 12 13 15 16 16 17 18 19 20 20 20 21 23 24 24 24 24 23 23 22 22 22 22 22 21 21 22 23 23
1 3 2 3 7 10 9 6 5 5 6 6 8 10 11 9 9 10 12 14 16 17 19 19 19 20 21 20 18 20 25 29 31 29 29 30 31 32 32 32 31 28 26 25 23 19 16 15 13 11 11 10 10 11 11 12 12 13 14 16 17 18 19 20 20 20 20 21 22 22 21 21 21 21 21 22 22 23 23 22 22 23 23 23 24
3 3 2 4 7 6 5 5 5 5 7 8 9 9 8 8 10 11 13 14 15 17 19 21 21 21 21 19 20 24 28 30 28 27 29 31 32 32 32 31 30 28 27 25 21 16 14 12 11 9 9 9 10 11 11 12 12 13 14 16 17 17 18 18 19 19 19 19 18 17 16 17 17 18 19 19 21 22 23 23 23 23 24 24 24
3 3 3 5 5 4 5 5 6 7 9 8 7 7 9 11 12 12 13 15 16 17 19 21 22 21 20 20 24 28 29 26 25 27 31 32 32 32 31 28 26 26 26 23 20 17 14 12 10 10 9 9 10 10 10 11 12 12 13 13 13 13 14 15 16 17 17 18 17 16 15 16 16 17 18 19 19 20 21 22 21 22 22 22 22
3 2 3 4 5 6 7 7 8 10 9 6 7 9 11 11 11 12 14 16 16 16 19 21 22 21 22 25 28 28 25 24 27 30 33 34 34 33 30 27 24 24 24 22 19 17 14 12 11 11 10 10 11 10 10 11 11 11 10 9 8 9 12 14 14 14 15 17 17 17 16 16 16 17 17 19 19 20 19 18 19 20 20 21 21
3 3 2 5 6 8 9 9 11 11 9 7 9 10 11 11 12 14 15 15 15 17 20 21 20 21 25 28 27 25 23 26 30 33 35 36 35 33 30 27 24 23 23 21 19 17 15 13 13 12 11 10 10 10 10 11 11 10 10 10 10 11 12 13 15 17 18 18 18 18 18 18 19 19 19 19 19 19 19 17 16 17 19 20 20
4 1 4 6 6 7 9 10 12 12 9 8 10 11 10 11 13 14 14 14 15 18 20 20 21 24 26 25 23 22 24 28 31 33 36 36 35 33 30 26 23 22 22 21 19 17 15 14 13 13 12 11 11 10 10 10 10 10 11 11 13 13 14 16 18 20 21 21 20 20 19 20 20 21 21 21 20 19 18 17 16 16 18 20 19
2 2 5 4 3 6 8 9 11 11 10 9 10 10 11 12 13 13 14 15 16 19 20 21 22 24 22 19 18 20 23 26 29 32 34 35 35 33 30 24 22 21 21 20 18 17 14 13 12 11 10 9 9 9 9 9 10 11 13 13 13 15 16 17 19 20 22 22 22 22 21 20 20 21 22 22 21 20 18 18 17 16 17 19 19
4 4 3 2 2 6 8 8 9 10 9 9 10 10 11 12 12 13 14 16 17 19 20 21 22 22 19 16 16 19 21 24 27 30 32 33 34 32 29 24 21 19 19 19 19 17 15 13 10 8 8 8 8 9 10 11 12 14 15 14 15 16 16 17 19 21 23 23 23 24 24 23 21 21 21 23 23 21 19 18 17 16 15 17 18
5 4 2 1 2 6 7 7 8 9 8 9 10 10 10 11 12 13 15 17 17 19 21 22 22 22 18 15 15 18 21 23 26 28 31 31 31 30 28 25 22 19 16 15 16 15 14 13 11 10 10 11 13 14 14 15 17 18 17 17 17 18 18 18 20 22 23 24 25 26 25 25 23 22 21 22 22 20 18 17 17 16 14 14 16
5 4 3 1 3 5 5 6 8 8 8 10 10 9 9 11 13 15 16 16 18 20 22 22 22 21 18 16 15 18 20 22 24 26 29 30 30 29 27 25 24 21 18 15 14 14 14 14 14 14 15 16 17 18 19 19 20 19 19 20 20 19 18 19 21 23 24 25 27 27 27 26 25 24 22 22 21 19 17 16 16 17 15 12 14
3 3 2 2 3 4 5 7 8 8 9 10 10 9 9 12 15 15 15 16 19 21 21 21 22 21 19 17 17 17 19 21 22 24 26 28 28 28 27 26 24 23 21 19 17 16 15 16 16 17 18 18 19 19 20 21 21 19 19 19 18 16 16 19 21 23 24 26 28 28 28 28 27 25 23 22 21 18 17 16 16 17 16 12 12
1 1 2 2 3 4 6 9 9 9 10 11 9 8 10 13 15 15 14 16 20 21 20 21 21 20 19 19 18 17 17 19 21 22 23 25 26 27 27 27 26 25 23 22 20 19 18 17 17 17 18 19 19 20 21 21 21 21 20 18 16 16 18 20 21 22 25 27 28 29 30 29 27 23 20 20 20 19 18 16 15 16 17 14 12
1 2 1 2 4 5 7 9 9 10 12 12 9 8 11 14 14 13 14 17 20 20 19 20 20 19 19 20 19 17 17 18 19 21 22 22 24 25 26 27 27 27 26 25 24 22 21 19 18 17 18 18 20 21 21 20 20 20 20 19 19 20 22 22 22 23 25 27 29 31 31 28 25 20 18 18 19 18 16 15 14 14 15 15 14
3 3 3 3 5 7 8 9 9 10 13 13 9 8 12 15 14 13 15 18 19 19 19 20 19 19 20 20 20 19 17 16 17 19 20 21 22 23 25 26 27 28 28 27 26 24 23 21 19 18 18 19 21 22 22 21 20 20 19 20 22 23 23 23 23 24 27 29 31 31 28 24 20 17 16 15 16 14 12 10 10 12 14 15 16
4 5 5 5 7 8 9 10 9 9 12 12 9 9 13 16 14 13 16 18 18 18 19 19 19 19 20 20 20 20 19 16 16 18 19 20 21 22 23 25 26 27 28 28 27 26 25 23 20 18 19 20 21 22 22 21 21 20 20 21 22 22 22 23 25 27 31 32 31 27 22 19 17 15 14 11 9 6 4 6 9 11 12 15 16
4 6 5 6 8 9 10 10 9 9 11 11 8 10 14 15 13 14 16 17 17 18 19 18 18 19 20 20 20 21 20 19 17 17 18 20 21 21 22 24 25 27 28 28 27 27 26 23 20 18 18 19 20 21 21 21 21 21 21 21 21 21 22 24 28 31 32 30 26 22 20 19 17 15 13 11 5 2 7 9 11 13 14 16 16
4 5 5 6 9 10 11 10 9 9 10 10 9 11 14 14 12 14 16 16 16 18 19 18 18 19 19 19 20 21 21 20 18 16 17 19 20 21 22 23 25 27 29 28 27 27 25 23 20 19 19 19 20 21 20 20 20 20 19 18 19 21 24 27 30 31 29 25 23 22 21 20 17 13 12 10 8 11 15 16 16 17 17 16 17
Wind_Direction
165 157 157 158 128 116 116 297 143 120 135 158 162 154 190 241 285 266 273 287 285 288 293 282 267 281 288 288 293 293 295 305 311 313 319 322 325 328 326 319 307 293 283 275 272 272 273 272 270 269 270 269 269 268 266 264 261 262 270 280 285 287 296 299 292 290 289 285 289 292 289 290 289 285 286 286 285 284 281 278 279 279 276 272 268
164 172 176 174 171 188 215 200 80 33 134 164 168 150 184 256 283 280 283 288 285 290 292 281 275 287 292 292 294 293 292 298 302 305 313 315 315 321 326 325 317 305 294 285 280 279 277 274 272 272 273 273 273 271 270 268 266 266 267 272 277 279 286 297 300 298 293 282 280 281 278 280 280 277 281 286 288 287 283 280 278 277 276 275 273
173 178 183 191 219 232 222 211 321 330 197 181 186 184 185 245 274 276 274 276 280 282 279 279 283 289 295 297 295 290 285 288 292 295 301 304 306 310 313 315 315 311 309 306 297 288 284 280 278 279 280 280 279 277 274 271 271 271 268 267 272 275 277 285 292 298 298 293 286 284 283 281 277 271 271 277 282 284 282 281 280 279 278 278 277
189 185 193 208 228 231 227 249 279 312 308 184 195 216 233 254 275 278 280 285 288 285 283 288 292 294 297 297 294 288 282 284 286 287 292 297 300 302 302 304 305 302 304 309 307 304 303 301 298 297 295 292 289 284 279 274 272 273 271 268 270 274 277 281 285 288 290 289 286 283 284 284 282 279 277 274 273 275 275 274 275 277 276 275 277
203 204 210 213 210 210 217 228 253 299 298 225 213 241 263 275 280 282 285 287 287 287 288 290 292 293 293 293 291 289 287 288 288 287 291 293 293 295 295 296 295 291 290 296 301 307 312 312 311 309 305 302 297 292 286 280 275 274 274 273 273 276 278 280 284 286 285 285 284 282 281 281 280 279 279 277 274 272 272 271 272 274 273 271 271
198 209 211 199 194 202 211 215 242 284 280 273 278 286 290 291 290 289 287 285 285 286 287 288 289 291 292 292 293 293 293 293 294 293 293 293 294 297 299 297 291 284 285 293 299 305 307 307 307 307 306 305 302 298 292 284 277 274 274 275 276 278 280 282 285 287 286 285 284 283 282 281 279 277 274 274 276 276 277 277 278 280 279 275 270
189 200 202 199 203 211 217 228 253 266 268 286 300 300 301 299 299 300 298 295 293 292 291 292 291 292 294 296 298 299 299 299 300 301 300 302 304 305 306 303 292 284 288 295 297 298 299 300 302 303 305 306 306 303 298 287 277 271 269 271 274 277 279 281 283 287 287 285 284 284 284 282 282 281 277 272 272 274 277 280 281 281 282 280 276
197 202 206 209 213 216 222 238 254 264 277 299 305 304 307 308 307 307 306 305 304 302 301 299 298 299 301 304 306 306 306 306 308 308 306 305 305 303 303 301 296 293 294 295 295 295 296 298 300 302 305 307 309 309 305 295 282 274 270 271 273 274 275 275 277 280 284 285 285 285 285 285 283 283 282 278 274 273 274 278 280 280 279 279 280
206 210 216 217 213 215 220 232 249 270 285 292 297 302 310 314 313 311 310 310 309 308 307 306 307 307 306 305 305 305 306 308 309 308 305 304 303 301 300 297 294 294 296 297 296 296 298 299 302 305 307 309 310 309 307 301 289 277 272 274 275 274 273 273 273 275 279 283 285 285 286 286 285 285 284 282 279 277 274 274 276 278 279 278 277
215 220 226 228 224 224 229 236 250 268 283 289 293 303 313 317 316 315 313 311 310 309 311 312 311 308 306 304 304 306 309 308 304 300 299 302 302 299 297 295 292 290 290 292 293 294 296 299 302 305 307 308 307 304 302 301 291 275 269 271 275 275 274 273 272 273 276 279 281 283 284 285 284 283 283 282 281 279 276 274 274 275 278 278 275
222 225 228 233 235 237 241 247 255 262 276 296 301 304 312 315 312 309 305 304 306 307 308 307 306 305 307 307 306 306 305 302 299 296 296 297 297 297 297 297 296 294 292 292 292 294 296 298 301 303 305 305 304 301 300 299 291 276 264 262 266 271 273 274 274 274 276 278 279 280 281 283 284 283 282 281 280 279 276 273 272 272 274 276 276
228 230 231 234 236 238 243 250 259 263 273 296 303 301 305 307 306 304 303 302 302 302 301 301 304 306 306 304 302 300 299 299 298 297 296 296 296 296 298 299 299 298 296 295 294 295 296 297 299 301 303 305 304 301 298 296 288 274 262 257 259 264 270 274 274 274 275 277 278 278 279 282 284 283 282 282 280 280 280 276 274 272 271 272 273
232 235 238 237 235 237 243 253 263 269 274 290 298 297 300 303 305 307 305 302 300 301 302 303 304 303 300 299 300 301 301 300 298 296 296 296 296 297 299 300 300 299 298 297 296 296 297 298 300 301 302 303 302 298 295 292 286 276 269 266 264 265 269 272 273 275 276 278 279 279 280 282 282 281 281 280 279 279 280 280 280 278 274 272 271
234 240 246 243 240 240 244 253 266 270 271 281 290 294 298 301 305 306 303 302 303 304 305 306 306 304 301 302 305 306 306 305 302 300 300 301 302 303 303 302 301 302 301 301 300 299 300 300 300 300 300 299 297 295 291 289 288 284 281 278 276 274 273 274 274 275 275 275 276 277 277 278 278 278 276 275 273 273 274 276 277 276 275 273 271
238 241 246 245 243 242 243 250 259 259 263 276 285 292 299 301 302 302 303 304 305 307 312 316 318 315 312 312 313 314 317 319 317 315 314 314 315 313 310 306 304 304 304 303 302 301 300 299 298 297 296 295 293 291 288 288 288 287 285 283 281 280 278 277 277 277 275 274 274 275 275 275 276 276 273 270 268 268 269 271 270 269 269 270 270
236 237 241 239 237 242 247 251 251 251 263 283 288 292 300 301 301 305 308 311 314 322 335 340 336 332 327 325 324 325 330 334 333 330 327 326 325 321 317 313 310 309 308 305 303 301 299 299 298 296 295 294 292 289 287 286 285 283 284 284 283 281 279 278 277 276 275 276 276 275 275 274 274 273 272 270 269 268 267 266 265 267 268 269 271
231 234 238 235 235 245 252 252 248 255 275 290 288 293 302 305 309 318 325 333 343 351 353 349 343 339 335 333 332 333 336 337 332 328 327 326 326 325 323 318 315 314 313 311 307 305 302 301 300 300 299 297 294 290 286 285 284 282 282 283 283 281 279 278 276 275 274 274 274 274 274 273 273 271 269 268 268 268 267 265 266 268 270 271 271
233 238 236 234 239 250 256 252 249 262 283 290 293 304 313 317 329 345 354 357 356 349 343 342 343 342 341 340 338 334 331 330 326 325 325 324 326 327 324 318 315 314 313 312 309 307 306 305 304 305 304 301 297 292 287 285 283 282 282 283 283 280 278 278 278 276 274 273 272 272 272 272 272 271 270 267 265 265 265 267 269 269 269 270 271
237 239 236 238 247 256 256 250 253 270 289 297 308 323 335 347 359 5 0 348 338 332 329 332 337 342 343 340 335 328 324 323 321 321 322 325 329 331 327 323 323 323 320 316 313 310 308 307 306 305 303 302 299 295 291 288 286 285 285 284 283 281 280 282 282 281 279 277 275 273 271 269 267 266 267 266 264 262 261 263 266 266 266 267 269
234 233 235 244 255 254 247 253 268 290 306 317 341 3 9 5 356 350 345 334 324 321 320 324 331 336 335 330 327 324 322 321 320 321 324 330 334 335 334 332 333 333 329 324 320 315 311 308 305 302 300 298 296 294 292 289 287 286 285 283 282 282 283 284 283 283 283 282 280 279 277 274 270 267 265 263 261 259 258 259 261 261 262 263 263
228 232 239 245 253 253 257 272 299 319 336 5 27 22 10 359 348 343 337 327 321 319 319 323 324 322 323 324 324 326 329 333 336 337 338 338 337 336 335 335 333 331 328 325 322 318 315 311 307 304 301 297 293 290 288 286 286 284 282 280 281 283 284 283 282 282 282 280 280 280 279 278 276 274 271 268 264 262 262 263 264 263 261 260 261
233 234 227 211 269 278 289 335 354 359 15 26 22 15 12 3 346 335 323 315 316 317 317 319 317 317 320 323 326 333 341 347 348 346 343 340 336 334 334 332 330 329 326 323 321 318 316 314 311 309 307 303 298 291 286 283 282 281 279 279 281 282 283 283 282 281 280 280 280 279 277 276 276 276 275 274 271 268 268 268 268 267 264 262 262
216 196 149 30 320 314 24 35 24 16 17 13 6 4 5 350 331 318 312 313 318 321 323 323 322 323 326 330 336 342 345 344 342 340 338 336 334 332 332 331 330 328 324 320 318 316 314 313 312 310 309 307 303 298 290 283 278 278 279 280 282 283 283 283 283 282 282 282 281 279 276 274 274 275 275 275 274 272 271 270 269 268 267 266 265
99 64 38 14 14 44 41 25 11 1 353 346 342 343 336 331 326 319 316 318 322 325 327 328 331 334 336 338 342 343 338 334 333 333 331 330 332 333 332 330 329 327 323 318 315 313 311 310 309 308 308 307 305 300 294 287 281 278 279 279 279 281 282 282 283 282 282 281 279 278 275 273 273 273 274 274 275 273 272 270 269 267 266 266 264
61 52 54 57 46 20 354 342 335 325 309 301 303 314 319 321 319 316 316 320 322 325 329 334 339 340 338 337 338 337 333 329 329 330 330 330 332 333 330 328 326 324 321 318 314 311 309 307 307 308 309 307 305 302 299 294 288 283 280 277 276 277 279 280 280 279 278 277 276 276 277 278 279 278 278 279 277 275 273 270 267 264 262 259 256
65 72 65 24 347 329 316 311 297 258 259 282 300 310 314 315 313 313 317 321 323 328 336 341 342 339 335 332 332 332 332 332 331 332 332 331 330 328 326 324 322 320 318 315 312 308 306 306 308 310 310 309 309 309 308 303 296 286 280 275 273 274 275 277 278 276 275 276 277 278 281 286 289 287 285 284 283 282 280 275 268 262 256 252 252
161 137 327 323 319 304 283 274 271 272 282 294 303 307 309 312 314 316 321 326 332 341 344 340 337 334 330 330 331 331 332 334 336 335 334 332 330 326 323 321 319 317 315 312 309 306 304 306 309 310 308 310 315 317 318 320 315 302 290 282 276 272 271 273 276 278 281 283 285 286 287 286 286 286 286 287 288 288 285 279 272 265 258 256 259
227 240 274 287 278 255 270 295 297 293 293 296 302 305 309 316 322 330 340 347 348 345 337 331 329 327 327 330 334 335 337 339 340 338 336 332 328 325 322 320 317 316 314 311 307 303 302 304 307 307 308 313 317 318 322 330 333 330 331 328 311 297 291 291 292 291 291 292 292 292 289 282 278 281 286 289 289 287 284 280 275 269 262 259 260
231 237 236 239 251 271 298 308 303 298 300 307 313 316 319 328 341 357 3 357 347 337 331 329 326 322 325 330 331 332 336 339 339 337 332 328 325 324 322 320 318 317 315 311 307 302 301 303 306 307 310 314 314 312 317 324 327 332 344 344 335 328 323 316 311 306 301 298 294 291 288 281 277 281 287 290 290 290 287 281 274 268 265 259 256
231 233 239 257 280 299 311 312 306 307 316 321 324 326 332 348 10 9 356 349 344 337 334 333 328 324 324 326 325 326 330 334 334 331 326 325 325 324 322 320 320 319 316 313 309 306 306 307 305 306 310 313 312 309 312 316 318 325 338 342 338 335 328 321 319 318 312 307 302 297 292 286 283 286 289 291 291 290 288 283 273 266 265 262 258
230 235 258 290 313 326 333 335 334 333 329 324 328 339 356 24 26 7 352 344 338 334 334 337 337 333 325 321 322 324 326 328 329 327 327 328 328 326 324 323 323 321 320 320 319 318 316 313 308 307 310 313 313 311 309 310 310 318 330 337 336 332 327 323 325 324 318 314 312 310 306 303 300 301 300 298 293 287 285 285 280 272 268 265 263
198 212 288 326 338 344 348 346 339 334 332 335 354 9 6 359 357 354 350 345 338 336 344 349 346 340 332 325 322 322 323 325 328 329 329 330 328 328 329 329 329 331 334 334 330 327 323 319 314 312 313 315 317 316 315 313 309 313 323 329 328 323 321 321 323 322 318 317 317 316 314 311 308 303 299 294 289 285 282 281 277 271 267 263 261
79 66 11 332 336 339 338 335 333 337 358 15 13 4 354 348 343 340 342 346 349 353 357 355 348 343 340 335 327 320 321 326 331 332 331 331 331 333 334 335 338 344 346 342 335 330 328 324 319 315 316 317 319 319 316 311 307 309 315 318 314 310 310 313 314 313 312 312 311 309 306 303 299 295 289 286 284 282 280 277 272 267 261 257 256
69 9 326 308 319 326 329 335 352 24 26 9 357 349 342 337 335 338 345 354 359 359 357 357 353 347 345 342 333 323 323 329 333 333 332 334 337 339 339 342 349 353 350 343 338 333 331 328 323 320 319 318 318 317 313 309 308 309 308 305 302 299 299 302 305 306 306 304 302 299 298 297 294 291 287 284 283 280 276 273 269 265 260 256 254
275 315 297 285 310 325 339 12 42 32 5 351 344 339 336 336 345 357 2 1 358 355 354 355 354 350 348 345 336 327 329 333 334 335 338 342 345 346 347 351 355 353 348 345 343 339 335 331 326 322 320 318 315 312 308 303 302 300 298 297 296 296 297 300 302 304 303 301 299 300 302 301 299 295 289 283 280 278 275 271 267 264 262 259 255
247 271 268 294 319 343 31 54 33 2 348 342 338 340 354 12 15 12 7 0 355 354 354 353 351 350 349 345 336 333 336 338 337 342 350 353 353 354 355 354 352 350 350 353 353 351 347 342 335 329 324 318 312 309 306 302 298 295 295 296 299 303 307 310 313 314 313 313 315 317 320 319 318 316 309 296 284 277 272 269 266 264 263 261 257
230 240 279 315 341 35 59 34 3 351 344 342 353 16 30 26 17 9 3 358 356 357 354 350 350 351 349 342 338 339 341 343 346 352 358 0 1 1 359 355 350 351 357 1 2 2 1 357 353 348 341 333 327 321 317 313 309 306 307 309 312 318 321 321 323 327 328 330 331 331 331 328 326 325 321 312 302 292 281 270 263 260 261 261 257
213 248 306 355 34 47 34 15 5 2 360 13 39 37 25 16 12 6 1 359 360 359 354 351 353 352 345 341 341 342 346 351 357 0 3 5 7 6 2 357 356 358 0 1 1 3 1 355 352 351 345 339 337 333 330 331 331 330 332 333 330 326 323 323 330 338 339 337 335 334 332 328 325 322 318 314 312 307 296 280 264 257 256 255 252
225 280 2 43 48 36 23 16 15 17 23 42 41 26 14 12 10 4 1 2 1 356 353 353 353 348 343 342 344 347 354 1 5 6 7 8 9 8 5 3 2 3 4 5 7 9 7 2 1 3 2 359 360 358 355 357 358 355 349 337 322 319 327 337 343 345 344 342 340 338 334 328 324 320 317 315 313 308 301 291 274 258 252 252 250
253 310 58 57 42 26 20 18 18 21 29 36 27 17 12 10 6 3 3 2 356 352 352 352 349 345 344 346 350 354 1 7 9 10 9 9 10 11 9 8 7 7 8 13 16 17 15 12 14 20 24 26 26 19 8 1 355 345 335 323 316 326 342 349 346 344 344 342 340 337 332 326 322 318 315 315 314 309 302 294 282 266 256 254 253
226 105 78 63 37 22 17 14 15 19 23 23 16 10 9 8 4 2 0 355 351 351 351 349 347 346 347 350 354 360 6 9 10 11 11 10 12 14 13 10 11 14 15 17 18 17 16 16 18 24 26 25 19 6 352 342 333 327 321 318 322 334 343 344 341 341 341 339 334 331 327 322 317 314 312 310 311 310 304 294 284 272 259 252 248
130 101 79 75 38 20 15 13 15 17 17 12 6 7 10 8 1 357 355 351 350 351 350 349 350 351 351 351 356 3 10 12 11 12 13 12 13 15 15 12 13 17 18 18 18 17 16 14 12 8 1 351 341 332 327 322 319 318 318 319 326 332 335 337 339 337 334 330 328 327 325 321 316 312 308 305 306 307 304 296 286 274 259 246 241
122 104 97 102 21 12 12 15 17 15 8 2 3 7 9 4 358 354 352 351 352 353 353 353 355 354 353 355 359 6 12 14 13 13 15 14 14 15 15 14 15 17 19 19 16 11 5 0 353 341 332 327 322 319 316 315 316 317 316 316 319 322 324 329 332 330 325 324 324 324 323 321 319 314 306 300 298 297 297 296 291 281 264 242 233
115 111 115 80 12 7 9 11 12 6 355 356 4 10 6 359 356 353 351 353 355 355 356 357 358 356 356 359 2 7 12 15 14 14 16 17 18 16 15 14 13 13 15 16 13 5 357 352 347 341 335 332 328 323 319 317 316 314 311 311 313 314 314 317 322 322 320 320 322 323 322 320 318 314 304 297 294 289 285 286 288 283 272 245 226
114 113 100 52 6 350 353 0 2 357 351 357 8 13 5 358 356 354 355 357 357 356 358 360 359 358 360 3 4 7 11 13 14 14 16 19 20 20 20 17 14 10 8 7 4 359 354 351 349 346 343 341 339 335 333 333 332 328 323 318 314 308 305 308 313 316 317 319 321 323 321 317 314 310 304 298 293 284 273 272 277 277 268 245 219
147 114 69 28 343 332 348 356 356 354 358 4 9 10 4 359 356 357 360 359 357 357 1 2 360 0 4 6 5 6 9 10 11 14 16 19 20 21 21 20 18 14 11 7 2 357 352 348 347 346 345 345 345 346 347 347 345 341 336 329 319 312 312 314 316 318 321 323 322 321 318 315 313 309 302 295 290 280 270 268 270 267 256 237 214
79 70 37 345 324 330 346 352 351 356 3 5 6 8 6 1 358 0 3 360 357 359 3 3 1 3 7 7 6 7 7 7 8 10 13 17 19 19 19 19 17 14 12 10 6 1 355 347 343 342 344 347 350 352 354 356 353 349 343 338 335 334 335 334 332 331 329 326 323 321 319 317 314 309 300 291 287 283 277 272 263 250 237 223 205
55 40 16 346 337 340 347 350 351 358 2 2 5 13 7 1 0 3 2 358 358 1 5 6 5 6 8 9 9 8 6 4 5 7 9 12 15 16 17 16 14 12 10 8 6 4 0 354 347 346 349 354 356 355 356 359 1 1 356 350 347 348 348 347 345 340 334 329 327 326 326 324 321 315 307 297 289 285 280 264 238 220 214 207 198
33 17 7 358 352 351 353 354 354 357 357 358 6 14 6 359 0 3 0 359 1 5 6 7 8 8 8 9 9 9 8 5 4 5 6 7 10 12 13 12 11 10 9 6 5 5 4 1 358 356 358 1 3 360 358 359 3 5 2 357 353 353 354 353 349 343 336 333 334 336 338 339 337 331 325 318 305 287 256 216 198 191 188 186 185
24 9 5 5 3 360 358 356 352 350 353 357 8 11 2 357 359 1 359 1 6 8 8 10 11 10 9 9 9 10 9 7 4 2 3 4 6 8 9 9 9 9 8 7 6 5 4 4 4 3 2 4 6 5 2 1 2 2 1 360 359 0 2 359 352 344 341 342 349 356 359 358 355 351 349 352 4 116 149 155 158 158 158 163 170
7 356 354 9 14 12 5 357 345 342 352 2 8 4 358 356 359 1 360 3 8 9 9 11 12 12 10 10 9 10 10 9 6 3 2 2 4 6 7 8 8 9 8 8 6 5 5 6 7 6 3 5 8 8 6 6 6 4 3 6 10 12 10 4 355 350 352 0 9 13 11 7 6 10 19 32 71 119 133 136 139 143 146 152 162
Height
1535 1536 1537 1537 1538 1539 1539 1539 1540 1540 1540 1541 1541 1541 1541 1541 1541 1541 1541 1541 1540 1539 1539 1538 1538 1537 1537 1536 1536 1535 1535 1534 1533 1532 1531 1530 1530 1529 1528 1526 1526 1525 1524 1523 1522 1521 1521 1520 1519 1518 1517 1517 1516 1516 1516 1516 1516 1515 1515 1514 1514 1514 1513 1511 1510 1508 1509 1510 1509 1509 1509 1509 1509 1509 1509 1509 1509 1509 1508 1508 1508 1507 1507 1507 1507
1535 1536 1536 1537 1538 1538 1539 1539 1539 1540 1540 1541 1541 1541 1541 1541 1541 1541 1541 1540 1539 1538 1538 1537 1537 1537 1536 1536 1535 1534 1534 1533 1532 1531 1530 1529 1528 1528 1527 1526 1525 1523 1522 1521 1520 1520 1519 1518 1517 1516 1516 1515 1514 1514 1514 1513 1513 1513 1513 1512 1511 1511 1510 1509 1508 1507 1506 1507 1507 1506 1506 1506 1506 1506 1506 1506 1506 1506 1506 1506 1505 1505 1505 1505 1505
1534 1535 1536 1537 1538 1538 1539 1539 1539 1540 1540 1540 1540 1540 1541 1540 1540 1540 1540 1539 1539 1538 1537 1537 1537 1536 1535 1535 1534 1533 1532 1531 1531 1530 1529 1528 1527 1526 1526 1524 1523 1522 1521 1520 1519 1518 1517 1516 1516 1515 1514 1513 1512 1512 1511 1511 1511 1510 1510 1510 1509 1508 1508 1507 1507 1506 1505 1504 1505 1504 1504 1504 1504 1503 1504 1504 1503 1504 1503 1503 1503 1503 1503 1503 1503
1534 1535 1536 1536 1537 1538 1538 1538 1539 1539 1539 1540 1540 1540 1540 1539 1539 1539 1539 1538 1538 1537 1537 1536 1536 1535 1534 1534 1533 1532 1531 1530 1529 1529 1528 1527 1526 1525 1524 1523 1522 1521 1520 1519 1517 1516 1516 1515 1514 1513 1512 1511 1510 1510 1509 1508 1508 1507 1507 1507 1506 1506 1505 1505 1505 1504 1503 1503 1503 1503 1502 1502 1502 1502 1502 1501 1501 1501 1500 1500 1500 1500 1500 1500 1500
1533 1534 1535 1536 1537 1537 1538 1538 1539 1539 1539 1539 1539 1539 1539 1539 1539 1538 1538 1537 1537 1536 1536 1535 1535 1534 1533 1532 1531 1531 1530 1529 1528 1528 1527 1526 1524 1523 1522 1521 1520 1519 1518 1517 1516 1515 1514 1513 1512 1511 1510 1509 1508 1507 1506 1505 1505 1504 1504 1504 1503 1503 1503 1502 1502 1502 1501 1500 1500 1500 1500 1500 1500 1500 1500 1499 1499 1498 1498 1498 1498 1497 1497 1497 1497
1533 1534 1535 1536 1536 1537 1537 1538 1538 1538 1539 1539 1538 1538 1538 1538 1537 1537 1537 1536 1536 1535 1535 1534 1533 1533 1532 1531 1530 1529 1528 1528 1527 1526 1525 1524 1522 1521 1520 1519 1518 1517 1516 1516 1515 1514 1513 1512 1511 1510 1508 1507 1506 1505 1504 1503 1502 1501 1501 1500 1500 1500 1500 1500 1499 1499 1498 1498 1497 1497 1497 1497 1497 1498 1498 1498 1497 1496 1496 1495 1495 1495 1495 1495 1495
1532 1533 1534 1534 1535 1536 1536 1537 1537 1538 1538 1538 1538 1537 1537 1537 1536 1536 1535 1535 1534 1534 1533 1533 1532 1531 1530 1529 1529 1528 1527 1526 1525 1524 1523 1522 1521 1520 1519 1517 1516 1516 1515 1514 1513 1512 1511 1510 1509 1508 1506 1505 1504 1502 1501 1500 1499 1498 1498 1497 1497 1497 1496 1496 1496 1496 1495 1494 1494 1494 1494 1494 1494 1494 1495 1495 1494 1494 1493 1493 1492 1493 1493 1492 1492
1530 1531 1532 1533 1534 1534 1535 1536 1536 1537 1537 1537 1537 1537 1536 1536 1535 1535 1534 1534 1533 1532 1532 1531 1530 1530 1529 1528 1527 1526 1525 1524 1523 1522 1521 1520 1519 1518 1517 1516 1515 1514 1513 1512 1511 1510 1509 1508 1507 1505 1504 1503 1501 1500 1499 1498 1496 1495 1495 1495 1494 1494 1493 1493 1492 1492 1492 1491 1491 1491 1490 1491 1491 1491 1491 1492 1491 1491 1491 1490 1489 1489 1490 1489 1489
1529 1530 1531 1532 1533 1533 1534 1534 1535 1535 1536 1536 1536 1536 1535 1535 1534 1534 1533 1532 1532 1531 1530 1530 1529 1528 1527 1526 1525 1524 1523 1522 1521 1520 1519 1518 1517 1516 1515 1514 1513 1512 1511 1510 1509 1508 1507 1506 1504 1503 1502 1500 1499 1498 1496 1496 1494 1493 1492 1492 1491 1491 1490 1490 1489 1489 1488 1488 1487 1487 1487 1487 1487 1488 1488 1488 1488 1488 1488 1487 1486 1486 1486 1486 1486
1528 1529 1530 1531 1531 1532 1532 1533 1533 1534 1534 1534 1534 1534 1534 1533 1533 1532 1531 1531 1530 1529 1529 1528 1527 1526 1525 1524 1523 1522 1521 1521 1519 1518 1517 1516 1515 1514 1513 1512 1511 1510 1509 1507 1506 1505 1504 1503 1502 1501 1499 1498 1496 1495 1494 1493 1492 1491 1490 1489 1489 1488 1487 1487 1486 1486 1485 1485 1484 1484 1483 1483 1484 1484 1484 1484 1484 1484 1484 1484 1483 1483 1483 1482 1482
1527 1528 1529 1529 1530 1530 1530 1531 1532 1533 1533 1533 1533 1533 1532 1532 1531 1531 1530 1530 1529 1528 1528 1527 1526 1525 1524 1522 1522 1520 1519 1518 1517 1516 1515 1514 1513 1512 1511 1510 1509 1508 1506 1505 1504 1503 1501 1500 1499 1498 1496 1495 1493 1492 1491 1490 1489 1488 1487 1487 1486 1485 1485 1484 1484 1483 1483 1482 1481 1482 1481 1480 1481 1481 1481 1481 1481 1481 1481 1481 1480 1480 1480 1479 1479
1525 1526 1527 1528 1528 1529 1529 1530 1530 1531 1531 1532 1532 1531 1531 1531 1530 1530 1529 1528 1528 1527 1526 1525 1524 1523 1522 1521 1520 1519 1517 1516 1515 1514 1513 1511 1511 1509 1508 1507 1506 1505 1504 1502 1501 1500 1498 1497 1496 1494 1493 1492 1490 1489 1487 1486 1485 1485 1484 1484 1483 1483 1482 1482 1481 1480 1480 1479 1479 1479 1478 1478 1478 1478 1478 1478 1478 1478 1478 1477 1477 1477 1477 1476 1476
1523 1524 1525 1526 1527 1528 1529 1529 1529 1530 1530 1530 1530 1530 1529 1529 1528 1528 1527 1527 1526 1525 1525 1524 1523 1522 1520 1519 1518 1517 1516 1515 1513 1512 1511 1509 1508 1507 1506 1505 1503 1502 1501 1499 1498 1497 1495 1494 1492 1491 1490 1488 1487 1485 1484 1483 1482 1481 1481 1481 1480 1480 1479 1479 1478 1478 1477 1476 1476 1475 1475 1475 1475 1475 1476 1475 1475 1475 1474 1474 1474 1474 1473 1473 1473
1521 1523 1524 1525 1526 1527 1528 1528 1528 1529 1528 1528 1529 1528 1527 1527 1527 1526 1526 1525 1524 1524 1523 1522 1521 1520 1519 1518 1517 1515 1514 1513 1511 1510 1509 1507 1506 1504 1503 1502 1501 1500 1498 1497 1496 1494 1493 1491 1489 1488 1487 1485 1484 1482 1481 1480 1479 1478 1478 1477 1477 1477 1476 1476 1475 1475 1474 1474 1472 1472 1472 1472 1472 1471 1472 1472 1472 1471 1471 1470 1470 1470 1469 1469 1469
1519 1521 1523 1524 1526 1526 1527 1527 1527 1527 1527 1527 1527 1526 1526 1525 1525 1525 1524 1523 1523 1522 1521 1521 1520 1519 1518 1516 1515 1514 1512 1511 1509 1508 1506 1505 1503 1502 1501 1500 1499 1497 1496 1494 1493 1491 1490 1488 1487 1485 1484 1482 1481 1480 1478 1477 1476 1475 1474 1474 1474 1473 1473 1473 1472 1471 1471 1470 1469 1469 1468 1469 1468 1468 1468 1469 1468 1468 1468 1467 1466 1466 1465 1465 1465
1519 1521 1523 1524 1526 1526 1526 1526 1526 1526 1525 1525 1525 1525 1524 1524 1523 1523 1522 1522 1521 1521 1520 1520 1519 1518 1516 1515 1513 1512 1511 1509 1507 1506 1504 1503 1501 1500 1499 1498 1496 1495 1493 1491 1490 1488 1487 1485 1484 1482 1481 1479 1478 1477 1476 1474 1473 1472 1471 1470 1470 1469 1469 1469 1469 1468 1467 1466 1465 1465 1465 1465 1464 1464 1464 1465 1464 1464 1464 1463 1463 1462 1462 1461 1461
1518 1520 1521 1522 1524 1525 1525 1526 1526 1524 1524 1524 1524 1523 1523 1522 1522 1521 1521 1521 1520 1520 1519 1518 1518 1516 1515 1514 1512 1510 1509 1507 1506 1504 1502 1501 1499 1498 1497 1495 1494 1492 1490 1489 1487 1486 1484 1483 1481 1479 1478 1476 1475 1474 1473 1471 1470 1469 1468 1467 1466 1466 1465 1466 1465 1464 1463 1462 1462 1461 1461 1461 1460 1460 1460 1461 1460 1461 1460 1459 1459 1459 1458 1457 1457
1515 1516 1517 1517 1519 1521 1523 1526 1525 1524 1523 1523 1522 1522 1521 1521 1520 1520 1520 1519 1519 1519 1518 1517 1516 1515 1513 1512 1510 1509 1507 1505 1504 1502 1500 1499 1497 1496 1494 1493 1491 1489 1488 1486 1485 1483 1481 1480 1478 1477 1475 1473 1472 1471 1470 1469 1467 1466 1465 1464 1463 1462 1462 1462 1461 1460 1459 1458 1458 1457 1457 1457 1457 1456 1456 1456 1457 1457 1456 1455 1455 1456 1454 1453 1453
1513 1514 1516 1516 1517 1518 1520 1523 1523 1522 1522 1522 1521 1521 1520 1520 1519 1519 1519 1518 1518 1517 1517 1516 1515 1514 1512 1511 1509 1507 1505 1503 1502 1500 1498 1497 1495 1494 1492 1490 1488 1487 1485 1483 1482 1480 1478 1477 1475 1474 1472 1470 1469 1468 1467 1465 1464 1463 1462 1460 1459 1458 1458 1457 1456 1455 1454 1453 1453 1452 1452 1452 1452 1452 1452 1452 1452 1453 1452 1451 1452 1452 1450 1449 1450
1512 1514 1515 1517 1518 1517 1519 1521 1522 1521 1521 1521 1520 1520 1519 1519 1519 1518 1518 1518 1517 1517 1516 1515 1514 1512 1510 1509 1507 1505 1503 1501 1500 1498 1496 1495 1493 1491 1490 1488 1486 1484 1482 1480 1478 1476 1475 1473 1471 1470 1468 1466 1465 1463 1462 1461 1460 1458 1457 1456 1454 1453 1454 1453 1451 1450 1449 1448 1447 1447 1446 1446 1447 1446 1446 1447 1447 1447 1447 1447 1447 1447 1446 1445 1446
1512 1514 1515 1516 1517 1517 1518 1520 1520 1520 1520 1520 1519 1519 1518 1518 1518 1517 1517 1516 1516 1515 1514 1513 1512 1510 1508 1507 1505 1503 1501 1499 1497 1496 1494 1493 1491 1490 1488 1486 1484 1482 1479 1477 1475 1473 1471 1469 1467 1466 1464 1462 1461 1459 1457 1456 1455 1453 1452 1451 1450 1449 1449 1447 1446 1446 1444 1443 1442 1441 1440 1440 1440 1440 1440 1441 1441 1442 1442 1442 1442 1442 1442 1441 1441
1513 1514 1514 1515 1515 1517 1519 1519 1519 1519 1519 1519 1518 1518 1517 1517 1516 1516 1515 1515 1514 1513 1513 1511 1510 1508 1506 1505 1503 1501 1499 1497 1496 1494 1493 1491 1489 1488 1486 1484 1481 1479 1476 1473 1471 1469 1466 1464 1462 1461 1459 1457 1455 1454 1452 1451 1449 1448 1446 1445 1445 1444 1444 1442 1441 1440 1438 1437 1436 1435 1434 1434 1434 1434 1434 1434 1434 1435 1435 1435 1436 1436 1436 1436 1436
1513 1513 1514 1514 1515 1517 1518 1518 1518 1518 1518 1518 1517 1516 1516 1515 1515 1514 1513 1513 1512 1512 1510 1509 1508 1506 1504 1503 1501 1499 1498 1496 1494 1493 1491 1489 1487 1485 1483 1481 1479 1476 1473 1470 1467 1464 1462 1460 1458 1455 1453 1451 1449 1448 1446 1445 1443 1442 1441 1440 1440 1439 1438 1437 1435 1434 1432 1431 1430 1429 1428 1428 1428 1427 1427 1428 1428 1428 1428 1428 1429 1429 1429 1430 1430
1512 1513 1513 1514 1515 1517 1517 1517 1517 1517 1517 1517 1516 1515 1515 1514 1513 1513 1512 1511 1511 1510 1508 1507 1505 1504 1502 1500 1499 1498 1496 1495 1493 1491 1489 1487 1485 1483 1481 1479 1476 1473 1470 1467 1464 1461 1458 1455 1453 1450 1448 1446 1443 1441 1439 1438 1437 1435 1435 1435 1434 1434 1433 1431 1429 1428 1427 1426 1424 1423 1422 1422 1422 1422 1422 1422 1422 1422 1421 1421 1422 1423 1423 1424 1424
1512 1513 1514 1515 1515 1516 1516 1516 1516 1516 1516 1516 1515 1514 1514 1512 1512 1511 1511 1510 1509 1508 1507 1505 1504 1502 1501 1499 1498 1496 1495 1493 1491 1490 1488 1485 1483 1481 1478 1476 1473 1470 1467 1463 1460 1457 1454 1451 1448 1446 1443 1441 1438 1435 1433 1431 1430 1429 1429 1429 1428 1428 1426 1425 1424 1423 1422 1421 1420 1419 1418 1418 1418 1418 1417 1417 1417 1416 1415 1415 1415 1416 1416 1417 1418
1513 1513 1514 1514 1514 1515 1515 1515 1515 1515 1515 1514 1514 1513 1512 1511 1511 1510 1509 1508 1508 1506 1505 1504 1503 1502 1500 1499 1497 1495 1493 1491 1490 1488 1486 1483 1480 1478 1475 1472 1469 1466 1463 1459 1456 1453 1449 1447 1444 1441 1438 1436 1433 1431 1428 1426 1425 1424 1423 1423 1422 1422 1421 1421 1420 1419 1419 1418 1417 1416 1415 1415 1415 1414 1414 1413 1412 1412 1411 1410 1410 1410 1411 1412 1412
1513 1513 1514 1514 1514 1515 1515 1515 1515 1515 1514 1514 1513 1512 1511 1510 1510 1509 1508 1507 1507 1506 1505 1504 1502 1501 1499 1498 1496 1494 1492 1490 1488 1486 1483 1480 1477 1474 1471 1468 1464 1460 1457 1453 1450 1447 1444 1442 1439 1437 1434 1432 1430 1428 1425 1423 1421 1420 1419 1419 1418 1418 1418 1418 1417 1417 1416 1415 1414 1413 1412 1412 1412 1411 1411 1410 1409 1408 1408 1408 1407 1407 1407 1408 1408
1513 1514 1514 1514 1515 1515 1515 1515 1515 1514 1514 1513 1512 1511 1510 1510 1509 1508 1508 1507 1506 1505 1505 1503 1502 1500 1498 1497 1495 1493 1490 1488 1486 1483 1480 1477 1474 1470 1467 1463 1459 1455 1451 1447 1444 1441 1439 1436 1435 1433 1431 1429 1427 1425 1423 1421 1420 1418 1417 1417 1416 1416 1416 1415 1415 1414 1413 1412 1411 1410 1409 1409 1409 1408 1408 1407 1406 1405 1405 1405 1404 1404 1404 1405 1405
1514 1514 1514 1514 1515 1515 1515 1515 1514 1513 1513 1512 1512 1511 1510 1509 1509 1509 1508 1508 1507 1505 1504 1502 1501 1500 1497 1496 1494 1491 1488 1486 1483 1481 1478 1475 1472 1467 1463 1458 1454 1449 1446 1442 1438 1435 1433 1432 1430 1429 1427 1425 1424 1422 1421 1419 1418 1417 1416 1415 1415 1414 1414 1413 1413 1412 1411 1410 1409 1408 1407 1406 1406 1405 1404 1404 1403 1402 1402 1402 1402 1401 1402 1402 1402
1514 1514 1514 1515 1515 1515 1515 1514 1513 1513 1512 1512 1511 1511 1510 1510 1509 1509 1508 1507 1506 1505 1503 1502 1500 1499 1496 1494 1492 1490 1487 1484 1481 1479 1476 1472 1469 1464 1460 1455 1450 1445 1441 1437 1434 1431 1429 1427 1426 1425 1424 1422 1421 1419 1418 1417 1417 1416 1415 1414 1413 1412 1412 1412 1411 1410 1409 1407 1406 1405 1404 1404 1403 1402 1401 1401 1399 1399 1399 1399 1399 1399 1398 1399 1399
1515 1515 1515 1516 1515 1515 1515 1514 1513 1513 1512 1511 1511 1511 1510 1510 1509 1509 1508 1507 1505 1504 1503 1501 1500 1498 1495 1493 1490 1488 1486 1483 1480 1476 1473 1469 1465 1460 1456 1451 1447 1442 1437 1433 1430 1428 1426 1424 1423 1422 1421 1419 1418 1417 1416 1415 1415 1414 1413 1412 1411 1411 1410 1409 1408 1407 1406 1405 1403 1402 1401 1400 1399 1399 1398 1397 1397 1396 1396 1395 1395 1395 1395 1396 1396
1516 1516 1516 1516 1515 1515 1514 1514 1513 1512 1512 1511 1511 1510 1510 1509 1509 1508 1507 1506 1504 1503 1502 1500 1498 1497 1494 1491 1488 1486 1483 1480 1477 1473 1469 1465 1461 1456 1452 1447 1443 1438 1434 1430 1427 1425 1423 1422 1420 1419 1418 1417 1415 1414 1414 1413 1413 1412 1411 1410 1409 1409 1408 1407 1406 1405 1403 1402 1401 1399 1398 1397 1397 1396 1395 1395 1394 1393 1393 1392 1392 1392 1392 1392 1393
1516 1516 1516 1515 1515 1515 1514 1513 1513 1512 1512 1511 1511 1510 1509 1509 1508 1507 1506 1505 1504 1503 1501 1499 1497 1495 1492 1489 1486 1483 1481 1478 1474 1470 1466 1462 1457 1452 1448 1444 1439 1435 1431 1428 1425 1423 1421 1419 1418 1416 1415 1414 1413 1413 1412 1412 1411 1411 1409 1408 1407 1406 1406 1405 1404 1402 1401 1400 1398 1397 1396 1395 1394 1393 1392 1391 1390 1390 1389 1389 1389 1389 1389 1389 1389
1516 1516 1516 1516 1515 1515 1514 1513 1513 1512 1512 1511 1511 1510 1509 1508 1507 1506 1505 1504 1502 1501 1499 1497 1495 1492 1489 1487 1484 1482 1479 1475 1472 1468 1463 1458 1454 1449 1444 1440 1435 1431 1429 1426 1423 1421 1419 1417 1416 1415 1414 1413 1412 1411 1410 1410 1409 1409 1408 1407 1406 1404 1403 1403 1401 1400 1398 1397 1396 1394 1393 1391 1390 1389 1388 1387 1386 1386 1385 1385 1385 1385 1384 1384 1385
1516 1516 1516 1516 1516 1515 1514 1514 1513 1513 1512 1511 1510 1509 1508 1507 1506 1505 1504 1503 1501 1499 1497 1495 1493 1490 1487 1484 1482 1480 1477 1473 1469 1465 1460 1455 1450 1445 1440 1436 1432 1429 1427 1424 1421 1419 1417 1415 1414 1413 1412 1411 1410 1409 1409 1408 1408 1407 1406 1405 1403 1402 1401 1400 1399 1397 1396 1394 1392 1391 1389 1388 1386 1385 1384 1383 1382 1382 1381 1381 1381 1380 1380 1381 1381
1517 1517 1516 1516 1516 1515 1514 1514 1513 1513 1512 1511 1510 1509 1508 1507 1506 1505 1504 1502 1500 1498 1495 1493 1491 1488 1486 1483 1480 1478 1474 1471 1467 1462 1458 1453 1448 1442 1438 1434 1430 1428 1425 1422 1420 1418 1416 1414 1413 1412 1411 1410 1409 1408 1407 1406 1406 1405 1404 1403 1401 1400 1399 1397 1396 1394 1392 1390 1389 1387 1386 1384 1383 1381 1380 1379 1378 1377 1377 1376 1376 1376 1376 1377 1377
1517 1517 1516 1516 1516 1515 1515 1514 1513 1512 1511 1510 1509 1508 1508 1507 1506 1504 1502 1501 1499 1496 1494 1491 1489 1486 1484 1481 1478 1475 1472 1469 1465 1461 1456 1451 1446 1441 1437 1434 1431 1427 1424 1422 1419 1417 1416 1414 1412 1411 1410 1409 1408 1407 1406 1405 1404 1403 1402 1401 1400 1399 1397 1396 1394 1392 1390 1388 1386 1385 1383 1382 1380 1379 1378 1376 1375 1373 1372 1372 1372 1372 1372 1373 1373
1517 1517 1516 1516 1516 1515 1515 1514 1513 1512 1511 1510 1509 1508 1507 1506 1505 1503 1501 1499 1497 1495 1493 1490 1487 1484 1481 1478 1475 1473 1470 1466 1462 1458 1453 1449 1444 1440 1436 1433 1430 1427 1424 1422 1420 1418 1416 1414 1413 1411 1410 1408 1407 1406 1405 1404 1403 1402 1401 1400 1399 1397 1396 1394 1392 1391 1388 1386 1384 1383 1381 1379 1378 1377 1375 1373 1372 1370 1369 1368 1368 1368 1368 1369 1370
1516 1516 1516 1516 1515 1515 1515 1514 1513 1512 1510 1509 1509 1508 1506 1505 1504 1502 1500 1498 1496 1494 1491 1489 1486 1483 1480 1477 1474 1471 1468 1464 1459 1455 1451 1447 1443 1439 1436 1432 1430 1427 1425 1422 1420 1418 1416 1414 1413 1411 1410 1408 1407 1406 1405 1404 1403 1401 1400 1399 1397 1396 1394 1392 1390 1388 1386 1384 1382 1380 1379 1377 1375 1374 1373 1371 1369 1368 1366 1365 1364 1364 1365 1365 1366
1516 1516 1516 1516 1515 1515 1514 1514 1513 1512 1510 1509 1508 1507 1506 1504 1502 1501 1499 1497 1495 1492 1490 1488 1485 1482 1479 1476 1473 1470 1467 1463 1459 1455 1451 1447 1443 1439 1435 1432 1430 1428 1426 1423 1421 1419 1417 1415 1413 1412 1410 1409 1408 1406 1405 1404 1402 1401 1399 1398 1396 1394 1392 1390 1388 1386 1384 1382 1379 1378 1376 1375 1373 1371 1370 1368 1367 1365 1363 1362 1361 1361 1361 1362 1363
1516 1516 1516 1516 1516 1515 1514 1514 1513 1511 1510 1509 1508 1506 1505 1503 1501 1500 1498 1496 1493 1491 1489 1487 1484 1481 1478 1476 1473 1470 1467 1463 1459 1455 1452 1447 1443 1439 1436 1433 1431 1429 1427 1425 1422 1420 1418 1416 1415 1413 1411 1410 1408 1407 1405 1403 1401 1400 1398 1396 1394 1392 1390 1388 1386 1384 1382 1380 1378 1376 1374 1372 1370 1368 1367 1365 1363 1362 1361 1360 1359 1358 1358 1359 1360
1516 1516 1516 1516 1516 1515 1514 1514 1512 1511 1510 1509 1507 1505 1504 1502 1500 1498 1497 1495 1493 1490 1488 1485 1483 1480 1477 1475 1473 1470 1467 1463 1460 1456 1452 1448 1444 1441 1438 1435 1433 1430 1428 1426 1424 1421 1420 1418 1416 1414 1412 1411 1409 1407 1404 1403 1401 1399 1397 1394 1392 1390 1388 1386 1384 1382 1380 1378 1376 1374 1371 1369 1367 1365 1363 1361 1360 1358 1357 1356 1355 1355 1355 1355 1356
1517 1516 1516 1516 1515 1515 1514 1513 1512 1511 1509 1508 1506 1505 1503 1501 1499 1498 1496 1494 1492 1489 1487 1484 1482 1479 1477 1474 1472 1469 1467 1463 1460 1457 1453 1449 1446 1442 1439 1437 1434 1431 1429 1427 1425 1423 1421 1419 1417 1415 1413 1411 1408 1406 1404 1402 1400 1397 1395 1393 1391 1389 1386 1384 1382 1380 1377 1375 1373 1370 1368 1366 1363 1361 1359 1357 1356 1355 1354 1353 1352 1352 1351 1352 1353
1517 1516 1516 1516 1515 1514 1513 1512 1511 1510 1508 1507 1505 1504 1502 1500 1499 1497 1495 1493 1491 1489 1486 1484 1481 1478 1476 1473 1471 1469 1466 1463 1461 1458 1454 1451 1447 1444 1441 1438 1435 1433 1430 1428 1425 1423 1421 1419 1417 1415 1413 1411 1408 1406 1403 1401 1399 1396 1394 1391 1388 1386 1385 1382 1380 1378 1375 1372 1369 1367 1364 1362 1359 1357 1355 1353 1352 1351 1350 1349 1349 1349 1349 1349 1350
1517 1516 1516 1515 1515 1514 1513 1511 1510 1509 1507 1506 1504 1503 1501 1499 1498 1496 1494 1492 1490 1488 1486 1483 1481 1478 1476 1473 1471 1469 1466 1464 1462 1459 1455 1452 1449 1446 1443 1440 1437 1434 1431 1429 1426 1424 1422 1419 1417 1414 1412 1410 1407 1405 1402 1399 1397 1394 1392 1389 1386 1384 1383 1380 1378 1375 1372 1369 1366 1363 1360 1357 1354 1352 1350 1348 1347 1347 1346 1346 1346 1346 1346 1347 1348
1516 1516 1515 1515 1514 1513 1512 1511 1509 1508 1506 1505 1503 1502 1500 1499 1497 1495 1493 1492 1490 1488 1485 1483 1481 1478 1476 1473 1471 1469 1467 1464 1462 1460 1457 1453 1450 1447 1444 1441 1438 1435 1432 1430 1427 1425 1422 1419 1417 1414 1412 1409 1406 1404 1401 1398 1395 1393 1391 1388 1386 1383 1381 1378 1376 1373 1370 1367 1363 1359 1355 1352 1349 1347 1345 1344 1343 1342 1342 1342 1342 1343 1343 1345 1346
1516 1516 1515 1514 1513 1512 1511 1509 1508 1507 1505 1504 1502 1501 1500 1498 1496 1495 1493 1491 1489 1487 1485 1483 1481 1478 1476 1473 1471 1469 1467 1465 1463 1460 1457 1455 1451 1448 1445 1442 1439 1436 1433 1430 1427 1424 1422 1419 1417 1414 1412 1409 1406 1403 1400 1398 1395 1393 1390 1388 1386 1383 1380 1377 1374 1371 1368 1364 1359 1355 1351 1347 1344 1342 1341 1339 1338 1338 1337 1337 1338 1339 1341 1343 1345
1516 1515 1514 1513 1513 1512 1510 1509 1507 1506 1505 1503 1502 1501 1499 1498 1496 1494 1493 1491 1489 1487 1485 1483 1481 1478 1476 1474 1471 1469 1467 1465 1463 1461 1458 1455 1452 1449 1446 1443 1440 1437 1434 1431 1428 1425 1421 1419 1416 1414 1411 1408 1405 1403 1400 1397 1395 1393 1390 1388 1386 1383 1379 1376 1373 1370 1365 1361 1356 1351 1347 1343 1340 1338 1336 1335 1334 1333 1333 1333 1335 1336 1338 1341 1344
1515 1515 1514 1513 1512 1511 1509 1508 1507 1506 1504 1503 1501 1500 1499 1497 1496 1494 1492 1491 1489 1487 1485 1483 1481 1479 1476 1474 1472 1469 1467 1465 1463 1461 1458 1456 1453 1450 1447 1444 1441 1438 1435 1431 1428 1425 1422 1419 1416 1414 1411 1409 1406 1403 1400 1398 1396 1393 1391 1388 1385 1383 1379 1376 1372 1368 1363 1357 1352 1348 1344 1340 1337 1335 1333 1331 1330 1330 1330 1331 1333 1335 1337 1340 1343
1515 1514 1514 1513 1512 1510 1509 1508 1506 1505 1504 1502 1501 1500 1499 1497 1495 1494 1492 1491 1489 1487 1485 1483 1481 1479 1477 1474 1472 1470 1467 1465 1463 1461 1459 1456 1454 1451 1448 1445 1442 1438 1435 1432 1429 1425 1422 1419 1416 1414 1411 1409 1406 1404 1401 1399 1396 1393 1391 1389 1386 1383 1380 1376 1372 1366 1360 1355 1350 1346 1342 1339 1336 1333 1331 1329 1328 1328 1329 1330 1332 1335 1337 1340 1343
1514 1514 1514 1513 1511 1510 1509 1507 1506 1505 1504 1502 1501 1500 1498 1497 1495 1494 1492 1491 1489 1487 1485 1484 1482 1480 1477 1475 1473 1470 1468 1465 1463 1461 1459 1457 1454 1451 1448 1446 1442 1439 1436 1433 1429 1426 1422 1419 1416 1414 1412 1409 1407 1404 1402 1400 1397 1394 1392 1390 1388 1385 1381 1377 1371 1366 1360 1354 1350 1346 1343 1340 1337 1334 1331 1329 1328 1328 1330 1332 1334 1336 1339 1341 1344